User: anonymous   Login
Location: Brompton
(51.4000°N, 0.5333°E)
Time: 05:32:24
(UTC+00:00)
Language:

Cosmos 1898 Rocket - Orbit

View from above orbital plane
View from above orbital plane
View from above satellite
View from above satellite

Ground track
Ground track

The orbit data is extracted from the following two-line orbital elements,

1 18586U 87098B   21210.54181417  .00000068  00000-0  31721-4 0  9999
2 18586  74.0062  46.6747 0020113 108.8502 251.4834 14.36961910762972
Epoch (UTC): 29 July 2021 13:00:12
Eccentricity: 0.0020113
inclination: 74.0062°
perigee height: 754 km
apogee height: 783 km
right ascension of ascending node: 46.6747°
argument of perigee: 108.8502°
revolutions per day: 14.36961910
mean anomaly at epoch: 251.4834°
orbit number at epoch: 76297

The dashed part of the orbit path shows where the satellite is in the earth's shadow,  

DLR